Location: Chippewa Lake
(41.0698°N, 81.9010°W)
Time: 02:09:15
(UTC+00:00)

CZ-3B R/B - Pass Details

Date: 09 May 2021
Orbit: 322 x 17349 km, 54.9° (Epoch: 24 June)

Event Time Altitude Azimuth Distance (km) Brightness Sun altitude
Rises 06:40:50 0° 226° (SW) 16,501 8.8 -28.8°
Enters shadow 06:46:02 - 227° (SW) 15,443 8.6 -28.5°
Exits shadow 07:16:57 24° 235° (SW) 7,175 6.9 -25.9°
Maximum altitude 07:32:30 73° 318° (NW) 1,917 4.4 -24.3°
Drops below altitude 10° 07:38:19 10° 44° (NE) 2,622 6.3 -23.7°
Sets 07:39:46 0° 47° (NE) 3,185 7.1 -23.6°
